DELTA 1 DEB, 29185

Orbit data source: Space-Track

DELTA 1 DEB, 29185 is space debris in LEO originally from a launch on Thu, 11 Jan 1968 UTC launched from the Air Force Western Test Range (AFWTR). Debris objects in space refer to the collection of defunct objects orbiting the Earth. Examples of debris include non-operational satellites, rocket bodies, and fragments generated from explosions, collisions, or faulty payload assembly.

Loading next visibility...
Identifier
29185, 1968-002J
Orbit
LEO
Country
Flag of USUS
Related business
Manufacturer
Unknown
Mission
Spacecraft
Bus & Motor
Unknown
Mass
Unknown
Launch date (UTC)
1968-01-11 (58 years ago)
Launch vehicle
Unknown
Launch site
Air Force Western Test Range (AFWTR)
Object type
Payload
Rocket body
Debris
Shape & HBR
Unknown shape, 0.1 m
Radar Cross Section
Small (<0.1 m²)

Expand to show TLE details & history
Last TLE update: 2 weeks ago

TLE from 2 weeks ago
0 DELTA 1 DEB
1 29185U 68002J   25289.48610970  .00000702  00000-0  16600-2 0  9996
2 29185 105.7883   5.9153 0249145   1.4170 358.7579 13.20010430434953
Epoch: 2025-10-16T11:39Z
TLE epoch observation values (Epoch: 2025-10-16T11:39:59.878Z)
Latitude
-0.00001°
Longitude
165.67067°
Altitude
998.754 km
Speed
7.443 km/s
True Right ascension
00h 23m 39s
True Declination
0° 00' 00"
Sunlit
Object was in full shadow at epoch
Visualization orbit readout
Latitude
Unknown
Longitude
Unknown
Altitude
Unknown
Speed
Unknown
Apparent Right ascension
Unknown
Apparent Declination
Unknown
Sunlit
N/A
Visualization observer readout
Local Sidereal Time
21:43:18
Azimuth
Unknown
Elevation
Unknown
Doppler factor
Unknown
Orbital elements
Apogee altitude
1,370.786 km
Perigee altitude
994.051 km
Semi-major axis
7,560.555 km
Eccentricity
0.02491
Inclination
105.7883°
RAAN
5.9153°
Arg. of periapsis
1.417°
True anomaly
358.69403°
Mean anomaly
358.7579°
Eccentric anomaly
358.72617°
Mean motion
3.30151 °/min
Orbital period
109.04 mins
BSTAR
0.00166
Loading maneuver chart data...
Computing Atmospheric mass density...
Loading historical data...
Loading historical data...
Loading historical data...
Loading historical data...
Loading historical data...
Loading historical data...
Loading historical data...

Documentation

Showing up to 5 results
|